Location: Biharia
(46.4333°N, 22.8000°E)
Time: 10:28:30
(UTC+00:00)

SL-16 R/B - Pass Details

Date: 16 October 2021
Orbit: 842 x 846 km, 71.0° (Epoch: 08 December)

Event Time Altitude Azimuth Distance (km) Brightness Sun altitude
Rises 18:03:11 0° 195° (SSW) 3,385 5.4 -25.3°
Reaches altitude 10° 18:05:37 10° 193° (SSW) 2,455 4.6 -25.7°
Enters shadow 18:08:50 35° 182° (S) 1,334 3.1 -26.2°
